Weather History for KDYT - January, 2013

Change the Weather History Date:

Wednesday, January 30, 2013

  Actual Average Record
Temperature  
Mean Temperature 17 °F -  
Max Temperature 24 °F 23 °F 44 °F (1989)
Min Temperature 10 °F 1 °F -34 °F (1951)
Degree Days  
Heating Degree Days 48    
Moisture  
Dew Point 9 °F    
Average Humidity 71    
Maximum Humidity 86    
Minimum Humidity 58    
Precipitation  
Precipitation 0.00 in - - ()
Sea Level Pressure  
Sea Level Pressure 29.67 in    
Wind  
Wind Speed 13 mph (NW)    
Max Wind Speed 22 mph    
Max Gust Speed 30 mph    
Visibility 10 miles    
Events      
Averages and records for this station are not official NWS values.
T = Trace of Precipitation, MM = Missing Value Source: NWS Daily Summary

Daily Weather History Graph

Daily Weather History Graph

Search for Another Location

Airport or City:

Trip Planner

Search our weather history database for the weather conditions in past years. The results will help you decide how hot, cold, wet, or windy it might be!

Date:

Astronomy

Jan. 30, 2013 Rise Set
Actual Time 7:34 AM CST 5:09 PM CST
Civil Twilight 7:01 AM CST 5:41 PM CST
Nautical Twilight 6:25 AM CST 6:18 PM CST
Astronomical Twilight 5:49 AM CST 6:53 PM CST
Moon 9:27 PM CST (1/30) 8:45 AM CST (1/30)
Length of Visible Light 10h 39m
Length of Day
9h 34m
Waning Gibbous, 87% of the Moon is Illuminated
Jan 30
Waning Gibbous
Feb 3
Last Quarter
Feb 10
New
Feb 17
First Quarter
Feb 25
Full

Hourly Weather History & Observations

Time (CST) Temp. Windchill Dew Point Humidity Pressure Visibility Wind Dir Wind Speed Gust Speed Precip Events Conditions
12:13 AM 23.0 °F 13.1 °F 17.6 °F 80% 29.76 in 10.0 mi WNW 9.2 mph - N/A   Mostly Cloudy
12:34 AM 24.8 °F 17.9 °F 19.4 °F 80% 29.75 in 10.0 mi NW 5.8 mph - N/A   Overcast
12:54 AM 24.8 °F 15.3 °F 19.4 °F 80% 29.75 in 10.0 mi WNW 9.2 mph - N/A   Overcast
1:13 AM 24.8 °F 16.1 °F 19.4 °F 80% 29.75 in 10.0 mi NW 8.1 mph - N/A   Overcast
1:34 AM 24.8 °F 15.3 °F 19.4 °F 80% 29.71 in 10.0 mi NW 9.2 mph - N/A   Overcast
1:54 AM 24.8 °F 16.1 °F 19.4 °F 80% 29.71 in 10.0 mi NW 8.1 mph - N/A   Overcast
2:13 AM 24.8 °F 14.6 °F 17.6 °F 74% 29.70 in 10.0 mi NW 10.4 mph - N/A   Overcast
2:34 AM 24.8 °F 15.3 °F 17.6 °F 74% 29.72 in 10.0 mi NW 9.2 mph - N/A   Overcast
2:53 AM 23.0 °F 11.1 °F 17.6 °F 80% 29.68 in 10.0 mi NW 12.7 mph - N/A   Overcast
3:13 AM 23.0 °F 11.1 °F 17.6 °F 80% 29.68 in 10.0 mi NW 12.7 mph - N/A   Overcast
3:34 AM 21.2 °F 10.1 °F 17.6 °F 86% 29.70 in 10.0 mi NNW 10.4 mph - N/A   Overcast
3:53 AM 21.2 °F 8.3 °F 15.8 °F 80% 29.68 in 10.0 mi NW 13.8 mph 19.6 mph N/A   Overcast
4:13 AM 21.2 °F 8.3 °F 15.8 °F 80% 29.70 in 10.0 mi NNW 13.8 mph 17.3 mph N/A   Overcast
4:34 AM 21.2 °F 10.9 °F 15.8 °F 80% 29.70 in 10.0 mi NW 9.2 mph 12.7 mph N/A   Overcast
4:53 AM 21.2 °F 8.9 °F 15.8 °F 80% 29.70 in 10.0 mi NW 12.7 mph 17.3 mph N/A   Overcast
5:13 AM 19.4 °F 7.9 °F 14.0 °F 80% 29.71 in 10.0 mi NW 10.4 mph - N/A   Overcast
5:34 AM 21.2 °F 6.0 °F 15.8 °F 80% 29.70 in 10.0 mi North 19.6 mph 24.2 mph N/A   Overcast
5:53 AM 19.4 °F 6.6 °F 12.2 °F 74% 29.68 in 10.0 mi NNW 12.7 mph - N/A   Overcast
6:14 AM 19.4 °F 5.0 °F 12.2 °F 74% 29.68 in 10.0 mi NNW 16.1 mph 20.7 mph N/A   Overcast
6:33 AM 19.4 °F 7.2 °F 12.2 °F 74% 29.68 in 10.0 mi NNW 11.5 mph 18.4 mph N/A   Overcast
7:14 AM 19.4 °F 7.2 °F 10.4 °F 68% 29.69 in 10.0 mi NW 11.5 mph 20.7 mph N/A   Overcast
7:33 AM 17.6 °F 5.0 °F 10.4 °F 73% 29.69 in 10.0 mi NNW 11.5 mph 17.3 mph N/A   Overcast
7:54 AM 17.6 °F 3.2 °F 10.4 °F 73% 29.68 in 10.0 mi NNW 15.0 mph 21.9 mph N/A   Overcast
8:14 AM 17.6 °F 2.2 °F 10.4 °F 73% 29.66 in 10.0 mi NNW 17.3 mph 24.2 mph N/A   Overcast
8:33 AM 17.6 °F 3.2 °F 10.4 °F 73% 29.66 in 10.0 mi NW 15.0 mph 25.3 mph N/A   Overcast
8:54 AM 17.6 °F 1.7 °F 10.4 °F 73% 29.66 in 10.0 mi NNW 18.4 mph 25.3 mph N/A   Overcast
9:14 AM 17.6 °F 2.7 °F 10.4 °F 73% 29.66 in 10.0 mi NNW 16.1 mph 24.2 mph N/A   Overcast
9:33 AM 17.6 °F 1.3 °F 10.4 °F 73% 29.66 in 10.0 mi North 19.6 mph 24.2 mph N/A   Overcast
9:54 AM 17.6 °F 0.9 °F 10.4 °F 73% 29.65 in 10.0 mi NNW 20.7 mph - N/A   Overcast
10:13 AM 17.6 °F 3.2 °F 10.4 °F 73% 29.65 in 10.0 mi NNW 15.0 mph 20.7 mph N/A   Overcast
10:34 AM 17.6 °F 0.5 °F 10.4 °F 73% 29.65 in 10.0 mi North 21.9 mph 27.6 mph N/A   Overcast
10:54 AM 17.6 °F 0.9 °F 8.6 °F 68% 29.66 in 10.0 mi NNW 20.7 mph 27.6 mph N/A   Overcast
11:13 AM 17.6 °F 3.2 °F 8.6 °F 68% 29.67 in 10.0 mi NNW 15.0 mph 23.0 mph N/A   Overcast
11:34 AM 17.6 °F 3.7 °F 8.6 °F 68% 29.65 in 10.0 mi NNW 13.8 mph 23.0 mph N/A   Overcast
11:53 AM 17.6 °F 4.3 °F 8.6 °F 68% 29.65 in 10.0 mi NW 12.7 mph - N/A   Overcast
12:14 PM 17.6 °F 3.2 °F 8.6 °F 68% 29.64 in 10.0 mi NNW 15.0 mph 19.6 mph N/A   Overcast
12:34 PM 17.6 °F 3.2 °F 8.6 °F 68% 29.64 in 10.0 mi NW 15.0 mph - N/A   Overcast
12:53 PM 17.6 °F 2.7 °F 8.6 °F 68% 29.63 in 10.0 mi NW 16.1 mph 19.6 mph N/A   Overcast
1:14 PM 17.6 °F 2.7 °F 6.8 °F 63% 29.63 in 10.0 mi NW 16.1 mph 19.6 mph N/A   Mostly Cloudy
1:33 PM 17.6 °F 3.2 °F 8.6 °F 68% 29.63 in 10.0 mi NNW 15.0 mph 19.6 mph N/A   Overcast
1:54 PM 17.6 °F 4.3 °F 6.8 °F 63% 29.62 in 10.0 mi NW 12.7 mph - N/A   Overcast
2:14 PM 17.6 °F 3.2 °F 6.8 °F 63% 29.63 in 10.0 mi NNW 15.0 mph 19.6 mph N/A   Overcast
2:33 PM 17.6 °F 2.2 °F 6.8 °F 63% 29.62 in 10.0 mi NNW 17.3 mph - N/A   Overcast
2:54 PM 17.6 °F 3.7 °F 6.8 °F 63% 29.62 in 10.0 mi NNW 13.8 mph 20.7 mph N/A   Overcast
3:13 PM 17.6 °F 3.7 °F 6.8 °F 63% 29.63 in 10.0 mi NW 13.8 mph 19.6 mph N/A   Overcast
3:33 PM 15.8 °F -0.6 °F 6.8 °F 68% 29.63 in 10.0 mi NW 18.4 mph 24.2 mph N/A   Overcast
3:54 PM 15.8 °F -1.1 °F 6.8 °F 68% 29.64 in 10.0 mi NNW 19.6 mph 25.3 mph N/A   Overcast
4:13 PM 15.8 °F 0.3 °F 6.8 °F 68% 29.64 in 10.0 mi NW 16.1 mph - N/A   Overcast
4:33 PM 15.8 °F 2.7 °F 6.8 °F 68% 29.64 in 10.0 mi NW 11.5 mph - N/A   Overcast
4:54 PM 15.8 °F -1.1 °F 3.2 °F 58% 29.65 in 10.0 mi NNW 19.6 mph 26.5 mph N/A   Overcast
5:13 PM 12.2 °F -4.8 °F 3.2 °F 67% 29.66 in 10.0 mi NW 17.3 mph - N/A   Mostly Cloudy
5:34 PM 12.2 °F -5.3 °F 3.2 °F 67% 29.66 in 10.0 mi NW 18.4 mph 26.5 mph N/A   Mostly Cloudy
5:54 PM 12.2 °F -5.8 °F 3.2 °F 67% 29.66 in 10.0 mi NW 19.6 mph 24.2 mph N/A   Scattered Clouds
6:13 PM 12.2 °F -5.3 °F 3.2 °F 67% 29.67 in 10.0 mi NNW 18.4 mph 25.3 mph N/A   Scattered Clouds
6:33 PM 12.2 °F -5.3 °F 3.2 °F 67% 29.67 in 10.0 mi NNW 18.4 mph 26.5 mph N/A   Mostly Cloudy
6:54 PM 12.2 °F -4.8 °F 3.2 °F 67% 29.67 in 10.0 mi NNW 17.3 mph 29.9 mph N/A   Mostly Cloudy
7:13 PM 12.2 °F -4.3 °F 1.4 °F 62% 29.67 in 10.0 mi NW 16.1 mph - N/A   Overcast
7:33 PM 12.2 °F -1.0 °F 1.4 °F 62% 29.67 in 10.0 mi NW 10.4 mph 18.4 mph N/A   Overcast
7:54 PM 12.2 °F -1.0 °F 3.2 °F 67% 29.66 in 10.0 mi NW 10.4 mph - N/A   Overcast
8:13 PM 12.2 °F -4.8 °F 3.2 °F 67% 29.66 in 10.0 mi NNW 17.3 mph 28.8 mph N/A   Overcast
8:33 PM 12.2 °F -3.7 °F 3.2 °F 67% 29.66 in 10.0 mi NNW 15.0 mph 25.3 mph N/A   Overcast
8:54 PM 10.4 °F -4.1 °F 3.2 °F 73% 29.66 in 10.0 mi NNW 11.5 mph - N/A   Overcast
9:13 PM 12.2 °F -5.8 °F 3.2 °F 67% 29.66 in 10.0 mi NNW 19.6 mph 28.8 mph N/A   Overcast
9:33 PM 10.4 °F -2.4 °F 1.4 °F 67% 29.66 in 10.0 mi NNW 9.2 mph 20.7 mph N/A   Overcast
9:54 PM 10.4 °F -3.3 °F 1.4 °F 67% 29.66 in 10.0 mi NNW 10.4 mph 20.7 mph N/A   Overcast
10:13 PM 10.4 °F -3.3 °F 1.4 °F 67% 29.67 in 10.0 mi NW 10.4 mph - N/A   Overcast
10:33 PM 10.4 °F -3.3 °F 1.4 °F 67% 29.67 in 10.0 mi NW 10.4 mph - N/A   Overcast
10:54 PM 10.4 °F -6.0 °F 1.4 °F 67% 29.67 in 10.0 mi North 15.0 mph 20.7 mph N/A   Overcast
11:13 PM 10.4 °F -5.4 °F 1.4 °F 67% 29.68 in 10.0 mi NNW 13.8 mph 21.9 mph N/A   Overcast
11:34 PM 10.4 °F -4.8 °F 1.4 °F 67% 29.68 in 10.0 mi NW 12.7 mph 16.1 mph N/A   Overcast
11:54 PM 10.4 °F -3.3 °F 1.4 °F 67% 29.69 in 10.0 mi WNW 10.4 mph - N/A   Overcast